Location: Maiden
(35.5760°N, 81.2120°W)
Time: 02:14:11
(UTC-04:00)

Vanguard 2 - Pass Details

Date: 11 August 2020
Orbit: 553 x 2937 km, 32.9° (Epoch: 20 September)

Event Time Altitude Azimuth Distance (km) Brightness Sun altitude
Rises 22:19:20 0° 254° (WSW) 6,787 12.8 -22.4°
Reaches altitude 10° 22:23:58 10° 253° (WSW) 5,729 12.3 -23.1°
Maximum altitude 22:41:14 77° 172° (S) 2,423 9.8 -25.7°
Enters shadow 22:49:06 28° 92° (E) 3,147 10.2 -26.8°
Drops below altitude 10° 22:52:46 10° 89° (E) 4,010 - -27.3°
Sets 22:55:25 0° 87° (E) 4,729 - -27.7°
